Temp
28 29 30 30 30 30 29 29 28 28 28 27 28 28 26 25 25 25 24 24 24 24 24 23 23 22 22 21 21 21 20 21 20 20 20 20 20 20 20 20 20 20 20 20
29 30 30 30 29 29 29 29 28 28 27 27 27 28 27 26 26 25 25 25 25 25 24 23 23 23 23 23 22 21 21 21 22 20 20 20 20 20 20 20 20 21 20 20
30 30 30 30 30 30 30 29 29 28 28 28 27 27 27 27 26 26 25 25 26 26 26 25 24 23 23 23 22 22 22 22 22 21 21 21 20 20 20 20 21 20 21 20
30 31 30 31 31 31 31 29 29 28 28 30 29 29 27 28 27 27 26 26 26 26 25 26 25 25 24 24 23 23 22 23 22 22 21 20 21 21 21 21 20 20 21 20
30 31 30 30 29 30 29 29 29 29 29 28 29 30 29 29 28 28 27 27 27 26 26 25 25 26 25 25 24 24 22 23 22 23 22 21 21 21 21 21 20 21 21 21
30 31 30 31 30 29 28 29 29 29 30 31 30 30 30 29 30 30 29 28 27 27 27 26 26 26 25 25 24 24 23 24 24 23 23 22 21 21 21 20 21 21 21 20
32 32 32 30 30 29 29 30 31 31 31 31 30 29 32 32 31 31 30 29 28 28 27 27 26 26 26 25 25 24 24 25 24 24 23 23 22 22 21 21 21 21 21 21
30 30 32 32 31 31 30 31 30 28 30 31 28 30 31 32 31 29 30 29 29 28 28 27 27 27 26 26 25 25 25 25 25 24 24 23 23 23 21 21 21 21 21 21
31 30 31 31 31 31 30 30 31 31 31 30 32 32 31 31 31 29 30 29 29 29 28 28 27 27 27 26 26 25 25 25 25 25 25 24 24 23 21 21 21 21 20 21
32 30 32 32 30 30 30 31 30 30 29 30 32 31 32 31 31 30 30 29 29 28 28 28 28 27 27 27 27 25 25 25 24 23 24 25 24 24 23 23 22 21 20 21
32 32 31 31 31 32 31 31 31 32 31 30 31 32 32 32 31 30 29 28 28 28 28 28 27 27 26 26 26 26 26 25 24 23 22 23 24 24 24 23 23 22 21 19
32 32 31 32 33 32 32 32 32 32 30 30 30 32 31 31 31 30 28 27 26 27 26 25 25 25 25 25 25 25 25 25 24 24 25 24 23 23 22 24 23 21 22 22
32 31 31 32 33 32 32 33 33 33 31 31 30 31 29 30 29 29 27 25 25 25 24 22 23 24 26 24 24 23 25 26 26 25 24 24 24 24 23 22 21 20 23 23
30 32 32 31 32 34 32 33 32 33 32 32 32 32 30 30 30 29 27 25 24 24 24 24 23 24 24 23 24 25 24 26 26 25 24 24 24 24 24 22 22 22 23 22
31 31 33 33 34 33 33 33 33 31 33 32 32 33 31 31 31 29 27 26 25 24 25 24 24 24 23 22 22 22 23 24 25 25 25 25 25 25 25 23 20 22 22 21
31 31 31 31 33 33 32 33 33 33 32 32 32 32 34 32 30 29 27 26 25 25 25 25 25 24 23 22 22 21 22 23 24 23 22 24 24 24 24 22 21 22 21 21
32 31 31 31 33 32 31 32 33 33 34 33 32 32 32 31 30 29 28 26 26 26 25 25 24 23 22 22 21 21 21 22 23 23 22 23 23 23 22 21 21 21 20 20
31 31 31 31 30 28 33 34 34 33 34 35 34 33 30 31 30 29 28 27 26 26 25 24 24 22 22 21 20 19 20 21 21 21 21 22 21 21 21 20 19 20 20 20
31 31 31 30 30 32 33 33 33 32 33 35 34 34 31 30 30 29 28 27 26 25 25 24 23 23 21 21 20 19 20 19 19 19 19 19 18 18 18 19 20 20 20 20
31 30 30 31 29 29 32 34 33 33 31 34 35 33 30 30 30 29 27 26 26 25 24 24 23 21 21 20 20 20 19 19 18 19 18 17 17 18 18 19 20 20 19 19
28 28 29 30 29 31 34 32 31 29 32 32 31 30 29 30 32 28 26 26 25 25 24 23 23 22 21 21 21 20 20 19 18 17 17 17 17 19 20 20 19 19 18 19
29 28 30 29 29 29 32 30 31 33 31 31 30 29 28 30 28 26 26 25 25 23 23 23 22 22 21 21 20 20 19 18 17 18 17 18 19 18 19 19 19 19 19 18
29 31 31 31 31 32 31 32 31 31 31 29 29 28 28 27 26 26 25 25 24 23 23 23 22 21 20 20 20 19 18 18 19 18 20 20 19 19 19 19 19 18 19 18
29 31 30 30 31 32 31 31 30 29 30 29 28 28 28 27 27 26 25 25 24 23 23 23 22 21 20 19 19 19 18 19 18 18 19 20 19 19 19 19 19 19 19 19
30 29 29 29 30 30 29 29 30 28 27 27 28 27 27 27 27 26 25 25 24 23 23 22 22 21 20 19 19 18 19 18 18 18 18 18 19 19 19 19 19 19 20 19
27 29 29 30 31 30 31 31 29 28 27 27 26 26 26 27 27 26 25 24 24 23 22 21 21 20 20 20 19 18 18 18 18 19 19 20 20 20 20 20 20 20 20 20
Height
1517 1511 1507 1506 1506 1505 1508 1509 1510 1510 1512 1514 1512 1513 1519 1524 1527 1528 1531 1533 1536 1540 1543 1546 1550 1553 1556 1559 1560 1563 1564 1565 1566 1568 1569 1569 1570 1570 1571 1571 1570 1569 1568 1568
1514 1504 1505 1507 1507 1507 1507 1509 1510 1511 1512 1515 1512 1511 1514 1521 1523 1526 1529 1531 1533 1537 1542 1546 1548 1551 1553 1556 1559 1560 1561 1563 1564 1566 1567 1568 1569 1570 1570 1571 1569 1568 1568 1567
1509 1504 1505 1504 1501 1502 1498 1506 1505 1510 1509 1510 1512 1512 1512 1516 1520 1524 1526 1529 1531 1534 1537 1541 1545 1548 1551 1554 1556 1558 1559 1560 1561 1563 1564 1565 1567 1567 1569 1569 1569 1568 1567 1567
1504 1503 1505 1499 1498 1498 1499 1501 1503 1509 1510 1505 1504 1509 1508 1507 1515 1518 1521 1524 1526 1530 1534 1537 1540 1544 1547 1550 1553 1555 1556 1557 1558 1560 1561 1563 1566 1567 1568 1568 1568 1567 1566 1566
1507 1501 1503 1502 1504 1501 1506 1501 1500 1503 1503 1507 1503 1504 1501 1499 1507 1509 1513 1517 1521 1525 1530 1534 1536 1540 1544 1547 1550 1552 1553 1553 1555 1557 1559 1561 1562 1565 1566 1567 1566 1566 1565 1566
1508 1502 1503 1498 1502 1502 1504 1501 1502 1502 1497 1500 1498 1499 1494 1498 1493 1497 1505 1510 1515 1520 1525 1530 1533 1538 1541 1545 1547 1549 1549 1551 1552 1554 1556 1558 1561 1562 1564 1565 1566 1566 1567 1567
1494 1493 1496 1502 1500 1503 1502 1498 1500 1503 1501 1505 1496 1502 1483 1479 1483 1487 1496 1504 1510 1515 1520 1525 1529 1533 1538 1541 1544 1546 1547 1548 1550 1552 1554 1556 1558 1559 1561 1562 1565 1566 1566 1566
1504 1508 1492 1494 1496 1497 1497 1498 1508 1526 1515 1502 1501 1499 1489 1478 1484 1490 1491 1498 1505 1510 1515 1520 1524 1529 1534 1538 1540 1542 1544 1546 1548 1549 1551 1553 1555 1557 1559 1561 1563 1564 1565 1565
1500 1502 1493 1495 1495 1497 1499 1503 1492 1497 1493 1505 1486 1480 1480 1482 1485 1490 1491 1495 1499 1504 1509 1515 1520 1525 1530 1534 1538 1540 1541 1543 1545 1547 1549 1550 1552 1554 1557 1558 1559 1562 1561 1562
1491 1506 1486 1491 1496 1497 1498 1493 1502 1497 1517 1515 1487 1490 1487 1485 1484 1487 1490 1492 1495 1501 1506 1511 1517 1521 1527 1531 1535 1537 1539 1541 1543 1545 1545 1547 1550 1552 1554 1555 1556 1558 1558 1558
1488 1493 1492 1492 1492 1487 1495 1493 1492 1490 1495 1511 1499 1489 1477 1478 1481 1485 1489 1491 1493 1498 1504 1509 1515 1519 1524 1529 1532 1535 1537 1539 1540 1541 1543 1544 1546 1549 1551 1553 1554 1554 1554 1554
1488 1486 1493 1487 1476 1485 1486 1486 1485 1495 1503 1501 1500 1492 1480 1481 1483 1487 1491 1494 1497 1499 1503 1508 1513 1517 1521 1525 1529 1532 1534 1535 1536 1536 1538 1541 1543 1545 1548 1548 1549 1550 1549 1549
1482 1492 1497 1489 1477 1481 1486 1478 1480 1478 1489 1497 1507 1492 1483 1484 1487 1489 1493 1497 1499 1501 1504 1507 1511 1514 1520 1524 1527 1529 1530 1531 1531 1533 1535 1538 1541 1543 1544 1546 1546 1544 1545 1545
1488 1478 1480 1489 1478 1466 1478 1478 1479 1478 1489 1487 1481 1480 1481 1483 1484 1489 1494 1499 1500 1503 1505 1509 1512 1514 1521 1521 1523 1525 1526 1527 1527 1529 1531 1534 1538 1540 1541 1542 1542 1541 1541 1543
1484 1480 1471 1468 1464 1466 1470 1473 1472 1482 1475 1485 1477 1473 1476 1478 1482 1486 1492 1497 1500 1503 1505 1508 1512 1516 1518 1519 1522 1523 1523 1523 1523 1524 1526 1528 1533 1534 1533 1539 1541 1541 1539 1540
1476 1478 1472 1477 1466 1468 1473 1467 1467 1470 1471 1472 1473 1472 1463 1472 1480 1486 1491 1495 1498 1501 1504 1507 1511 1514 1517 1519 1520 1520 1520 1520 1521 1522 1523 1525 1528 1528 1531 1535 1538 1538 1538 1538
1470 1471 1475 1478 1461 1469 1482 1467 1463 1462 1459 1464 1472 1465 1466 1472 1478 1484 1490 1494 1498 1500 1503 1506 1509 1512 1515 1516 1517 1518 1518 1519 1519 1520 1522 1523 1524 1527 1530 1534 1535 1537 1537 1538
1467 1469 1467 1474 1474 1497 1459 1450 1453 1456 1453 1451 1454 1458 1470 1469 1475 1481 1487 1491 1496 1499 1503 1507 1509 1511 1513 1516 1517 1517 1517 1518 1520 1521 1522 1523 1525 1527 1530 1533 1535 1537 1539 1538
1466 1463 1468 1476 1474 1461 1452 1453 1457 1458 1457 1447 1446 1453 1462 1467 1472 1480 1485 1490 1494 1498 1502 1506 1509 1511 1513 1515 1516 1518 1520 1521 1521 1522 1523 1524 1527 1528 1531 1534 1536 1537 1539 1538
1461 1463 1466 1464 1478 1479 1449 1442 1445 1451 1462 1445 1441 1447 1459 1462 1469 1472 1482 1489 1494 1498 1502 1506 1509 1511 1513 1515 1518 1519 1522 1522 1522 1523 1524 1526 1528 1530 1533 1536 1537 1538 1539 1540
1465 1463 1467 1463 1466 1453 1437 1444 1451 1470 1457 1441 1442 1447 1454 1457 1458 1469 1481 1488 1494 1498 1502 1506 1509 1512 1514 1516 1519 1521 1523 1524 1524 1525 1527 1528 1531 1533 1535 1537 1539 1540 1541 1541
1451 1459 1454 1457 1461 1466 1441 1447 1453 1440 1441 1442 1444 1448 1455 1459 1463 1470 1479 1486 1492 1496 1501 1506 1509 1512 1514 1517 1519 1522 1523 1525 1526 1527 1529 1531 1534 1538 1539 1540 1542 1542 1542 1542
1445 1436 1441 1440 1439 1437 1436 1437 1439 1442 1441 1444 1445 1449 1455 1460 1466 1471 1476 1484 1490 1495 1500 1505 1508 1511 1514 1517 1519 1522 1523 1525 1527 1529 1531 1534 1537 1540 1541 1542 1542 1543 1543 1545
1429 1430 1434 1435 1433 1432 1434 1436 1439 1440 1441 1443 1444 1449 1451 1459 1464 1470 1477 1483 1489 1494 1499 1504 1507 1510 1513 1517 1519 1522 1523 1526 1529 1531 1533 1536 1539 1541 1542 1544 1545 1546 1546 1546
1423 1427 1431 1431 1430 1431 1431 1432 1434 1437 1439 1440 1442 1445 1451 1456 1462 1468 1475 1482 1488 1494 1499 1502 1506 1509 1513 1516 1519 1521 1523 1526 1529 1531 1534 1538 1541 1543 1544 1545 1546 1546 1545 1545
1429 1424 1425 1424 1422 1424 1423 1423 1430 1433 1435 1439 1439 1444 1450 1454 1459 1466 1473 1480 1486 1492 1496 1501 1505 1509 1512 1515 1518 1520 1523 1526 1529 1532 1535 1538 1541 1542 1543 1544 1544 1544 1544 1543
Wind_Speed
2 10 2 10 7 5 6 4 4 3 3 5 4 5 10 14 15 16 17 17 16 15 14 16 16 15 14 13 12 10 9 7 7 7 7 6 5 5 4 4 5 6 6 5
7 5 8 5 5 6 7 6 3 2 4 6 5 7 11 15 15 16 18 18 18 18 17 17 17 16 15 14 13 12 11 11 11 10 9 7 5 5 5 4 5 3 4 6
8 11 8 7 7 5 4 7 3 6 4 6 4 8 10 14 14 16 18 18 19 20 19 19 19 17 16 16 15 14 11 10 10 11 11 11 8 8 5 4 3 4 5 4
8 2 6 9 6 11 5 4 3 5 7 1 8 3 12 16 16 17 20 21 22 21 20 19 19 18 17 15 13 13 14 14 11 11 12 12 9 8 6 5 5 4 7 5
10 6 11 13 8 7 4 6 5 6 7 5 8 5 8 15 16 19 23 23 23 23 23 22 21 17 16 13 12 12 11 9 12 12 12 11 12 10 8 6 6 4 4 4
23 16 8 8 4 3 3 4 6 5 6 4 4 6 10 11 19 19 25 25 24 23 22 22 20 18 16 13 12 11 9 6 5 10 13 13 13 11 9 7 6 5 5 5
14 9 3 9 6 4 6 7 3 6 5 6 3 5 6 8 5 16 22 26 26 24 22 22 21 19 16 14 13 11 9 7 8 10 12 12 12 13 13 11 7 7 4 4
8 9 8 8 7 6 3 6 5 4 5 5 4 2 5 5 7 7 16 24 25 25 24 23 20 19 17 16 13 11 10 9 9 10 11 11 12 14 13 12 10 7 5 5
6 10 3 5 2 6 6 5 5 7 4 5 3 5 8 7 7 7 11 16 24 27 25 25 22 21 20 18 14 13 12 11 12 13 12 13 11 13 12 11 10 8 8 6
7 10 9 2 5 6 10 4 5 4 4 5 4 3 7 8 8 7 8 12 22 24 25 24 22 21 20 19 16 13 12 12 11 13 16 16 13 12 11 11 10 9 8 7
15 9 4 4 10 6 6 6 4 4 4 5 4 7 5 4 5 6 6 5 12 21 20 21 19 19 19 16 15 12 11 11 10 11 14 16 16 16 12 11 11 10 8 7
19 9 11 16 8 3 7 10 9 7 3 2 6 3 3 3 5 5 9 8 10 15 18 18 18 17 15 14 12 10 8 7 8 11 11 11 12 12 11 12 11 11 12 12
8 12 13 13 14 9 10 11 8 6 3 8 7 1 2 7 6 5 11 11 13 15 17 17 19 17 15 11 9 7 8 8 5 7 9 9 9 10 10 11 11 12 13 11
6 15 15 12 14 6 13 10 8 11 8 11 10 9 8 9 8 9 13 15 16 16 17 16 15 15 13 11 8 9 9 11 6 7 11 10 6 7 5 10 13 13 7 10
10 16 16 18 17 9 9 9 6 11 12 9 12 9 4 10 11 12 14 18 18 17 17 17 16 14 10 9 8 6 5 4 5 9 14 19 21 11 21 17 13 10 7 9
12 9 6 12 18 12 17 16 12 11 11 10 15 18 10 10 14 15 17 20 20 19 18 17 14 12 10 8 6 4 4 4 3 7 11 17 16 19 24 15 15 9 8 6
9 9 7 13 12 11 14 16 15 15 13 12 14 7 6 12 17 20 19 21 22 21 18 17 15 11 8 6 5 5 5 5 6 8 11 13 13 12 11 11 11 9 7 6
10 10 7 9 3 12 15 2 6 12 14 14 13 10 7 11 22 21 21 23 22 20 18 15 13 11 8 7 7 8 8 9 11 13 15 16 16 16 16 14 12 11 10 8
11 11 8 9 12 13 11 7 9 12 16 15 13 12 11 15 23 20 22 22 23 21 18 15 13 12 12 10 9 10 9 10 12 14 16 16 16 16 15 15 15 13 10 7
11 12 10 11 14 18 11 16 4 5 14 19 21 12 17 26 16 13 26 24 22 20 18 17 15 13 13 13 11 11 11 11 13 14 15 15 16 16 17 16 15 13 10 7
10 9 14 14 15 14 12 8 7 10 13 3 8 15 26 20 16 27 27 25 24 22 20 19 17 15 14 14 12 12 13 13 14 16 17 17 17 18 18 17 15 12 9 7
13 10 11 12 18 19 6 10 10 10 2 6 14 16 24 21 16 32 31 29 27 25 23 20 18 17 16 15 14 15 15 14 16 17 18 19 18 13 16 14 11 9 7 6
15 15 11 13 12 16 17 17 12 8 6 7 13 18 24 18 24 32 34 32 28 27 24 21 19 18 16 15 15 15 16 14 17 17 19 19 16 15 13 10 7 6 5 3
15 16 11 15 14 16 16 20 11 11 8 8 14 22 27 23 28 32 32 31 30 27 26 23 21 19 18 16 15 15 16 16 17 17 18 17 14 12 10 6 5 3 2 3
14 13 13 14 15 10 12 18 19 13 9 10 15 22 27 26 30 33 33 32 29 29 26 23 21 19 18 17 16 16 17 16 16 16 14 13 10 9 8 7 5 3 3 4
20 12 10 11 15 16 23 16 18 18 15 15 21 22 24 26 31 33 33 33 31 30 27 24 21 19 19 18 16 16 16 16 15 15 13 12 9 7 6 3 2 2 2 4
Wind_Direction
163 268 9 13 337 335 290 276 319 83 147 244 215 169 174 175 184 184 187 191 195 195 180 175 185 194 195 203 209 223 231 236 248 236 233 238 238 231 238 258 302 314 314 320
224 256 16 332 324 291 243 248 214 142 177 229 184 213 175 186 193 193 195 195 199 191 192 201 206 210 213 218 226 233 242 252 254 234 228 226 226 225 227 249 280 341 300 307
280 331 333 295 316 299 226 258 237 308 162 205 210 215 188 189 200 198 205 205 201 205 208 206 212 219 225 228 232 237 245 251 249 225 232 235 230 229 246 267 290 280 306 295
285 30 295 311 16 337 13 344 223 199 230 204 219 121 193 185 199 205 206 206 206 203 206 209 210 214 218 224 230 236 246 253 245 240 228 220 214 220 226 237 264 271 287 281
285 315 333 315 12 327 358 285 222 212 239 293 172 246 118 192 200 205 207 203 205 201 203 210 211 211 213 219 233 239 245 261 227 238 230 232 217 227 228 241 253 271 291 282
243 272 289 344 3 5 156 156 171 203 256 212 93 289 161 181 218 202 204 205 204 200 202 206 211 211 215 220 226 223 231 240 240 231 224 228 221 221 224 237 246 270 269 284
251 257 316 269 246 176 242 256 228 201 180 52 74 259 16 164 174 203 201 203 204 202 203 207 210 212 214 214 216 220 222 232 229 217 215 219 224 228 235 236 244 247 273 282
271 236 211 161 263 333 239 326 305 313 18 1 120 279 86 152 158 178 205 201 202 202 202 204 203 203 203 203 207 211 218 227 220 217 216 218 224 229 230 236 226 245 256 269
235 238 143 231 221 271 108 229 10 291 187 229 76 98 163 163 172 184 199 196 205 202 203 203 200 202 200 204 214 214 220 229 228 229 225 223 224 227 227 224 238 247 250 255
255 271 244 102 197 220 264 352 244 179 323 326 77 115 50 182 189 187 190 209 204 199 202 201 202 198 202 205 207 214 219 223 228 223 237 236 238 235 235 243 246 237 238 257
246 238 183 186 217 255 171 221 211 292 287 318 307 87 43 140 146 174 153 168 185 185 187 185 188 191 195 200 209 219 229 233 237 230 227 233 238 239 243 247 254 252 240 236
230 272 241 242 190 172 288 291 292 286 102 263 297 9 104 140 138 126 126 138 144 168 164 162 166 167 172 183 195 205 211 239 251 245 235 229 224 226 226 242 246 238 236 239
195 221 258 232 222 205 242 247 247 296 288 267 281 352 105 159 156 136 139 139 136 140 143 147 153 146 181 179 185 203 249 266 274 242 212 202 212 221 220 220 215 218 243 252
235 248 244 261 240 255 197 222 232 250 255 271 260 283 155 185 179 157 151 152 140 141 143 146 149 164 181 170 201 221 229 246 255 221 194 191 228 219 258 231 225 226 234 248
232 248 247 251 265 200 253 277 247 241 257 264 283 291 108 188 187 171 162 161 153 153 153 153 155 160 162 166 180 193 215 228 241 210 198 193 212 245 271 257 214 206 217 240
225 260 288 262 259 238 256 259 268 242 263 262 270 276 300 183 175 166 165 167 168 163 163 162 166 172 179 180 176 162 196 202 169 175 178 196 205 224 233 230 195 228 224 253
219 244 230 264 213 236 242 243 240 249 243 255 264 20 121 165 182 177 169 170 171 164 162 160 160 166 168 164 158 150 164 162 146 149 157 169 180 185 176 179 171 171 162 136
245 238 232 257 176 234 248 31 290 280 273 270 256 254 202 211 187 176 175 170 168 164 161 160 159 155 148 138 134 128 137 140 134 133 139 144 148 148 144 144 148 139 135 124
239 256 249 248 233 244 248 214 243 241 265 266 265 256 195 205 173 173 176 171 167 163 157 156 156 150 142 137 129 121 125 126 127 130 131 133 136 135 138 135 129 123 118 107
225 237 257 233 259 256 259 260 197 268 260 262 261 237 184 169 178 172 173 170 164 159 154 152 150 144 142 137 134 128 129 129 126 127 128 130 130 131 130 130 124 120 108 103
193 217 226 229 243 257 252 109 153 237 274 283 224 185 181 180 188 161 166 165 163 158 153 150 147 149 148 139 140 140 135 132 129 129 128 126 129 133 133 129 126 114 111 105
210 220 225 234 246 236 133 149 220 277 186 190 180 180 177 178 143 156 162 162 160 155 155 151 149 150 147 148 146 141 138 137 136 133 130 130 126 126 133 132 129 121 104 94
240 241 249 241 227 234 188 230 226 264 208 193 186 176 173 165 161 163 162 163 160 158 157 157 154 149 149 150 148 148 146 144 141 138 137 137 138 140 133 124 118 127 128 132
206 240 253 250 243 250 234 237 234 207 222 214 186 183 173 175 171 167 166 164 162 162 161 159 156 153 152 155 152 158 150 149 149 146 142 143 144 145 141 131 130 124 112 157
267 176 221 240 249 253 244 235 227 209 205 192 179 176 176 177 174 172 169 167 165 162 158 155 157 158 159 160 159 160 160 157 157 156 153 152 157 151 167 162 159 132 92 146
253 221 216 239 234 229 243 229 213 195 178 183 162 167 176 178 176 176 173 171 167 166 163 161 161 162 164 166 166 167 169 165 163 165 164 165 170 169 167 181 176 142 68 55